DMSAG EDFB-EDNX

Flight info

Callsign DMSAG
Flight time 1h 12m
Altitude 7500
Route DF684 DCT WLD
Aircraft VL3/L-SFG/C

Departure

Time 2026-04-30 06:46
Airport Reichelsheim Airfield (EDFB)

Arrival

Time 2026-04-30 07:59
Airport Schleissheim Airfield (EDNX)
Time Latitude Longitude Altitude Speed Heading
2026-04-30 06:44 50.33315 8.87892 426 ft 0 kts 360°
2026-04-30 06:45 50.33396 8.87890 423 ft 50 kts
2026-04-30 06:46 50.33935 8.87900 571 ft 97 kts
2026-04-30 06:46 50.34695 8.87982 983 ft 119 kts
2026-04-30 06:46 50.35546 8.88182 1445 ft 128 kts 15°
2026-04-30 06:46 50.36334 8.88700 1908 ft 125 kts 54°
2026-04-30 06:47 50.36517 8.89965 2371 ft 121 kts 95°
2026-04-30 06:47 50.36489 8.91294 2846 ft 121 kts 94°
2026-04-30 06:47 50.36491 8.92605 3274 ft 122 kts 94°
2026-04-30 06:47 50.36475 8.94042 3309 ft 140 kts 100°
2026-04-30 06:48 50.35918 8.95279 3309 ft 148 kts 145°
2026-04-30 06:48 50.34913 8.95672 3306 ft 148 kts 164°
2026-04-30 06:48 50.33898 8.95916 3304 ft 147 kts 163°
2026-04-30 06:48 50.32875 8.95909 3308 ft 150 kts 181°
2026-04-30 06:49 50.31850 8.95548 3302 ft 151 kts 184°
2026-04-30 06:49 50.30846 8.95492 3292 ft 137 kts 153°
2026-04-30 06:49 50.30163 8.96405 3292 ft 129 kts 128°
2026-04-30 06:49 50.29488 8.97332 3295 ft 130 kts 136°
2026-04-30 06:50 50.28792 8.98239 3299 ft 131 kts 135°
2026-04-30 06:50 50.28094 8.99159 3296 ft 130 kts 135°
2026-04-30 06:50 50.27413 9.00055 3295 ft 129 kts 135°
2026-04-30 06:50 50.26716 9.00973 3294 ft 129 kts 135°
2026-04-30 06:51 50.26029 9.01882 3302 ft 133 kts 135°
2026-04-30 06:51 50.25313 9.02822 3294 ft 135 kts 135°
2026-04-30 06:51 50.24605 9.03758 3299 ft 133 kts 135°
2026-04-30 06:51 50.23897 9.04676 3302 ft 132 kts 136°
2026-04-30 06:52 50.23191 9.05600 3286 ft 131 kts 135°
2026-04-30 06:52 50.22502 9.06508 3281 ft 127 kts 135°
2026-04-30 06:52 50.21822 9.07401 3287 ft 129 kts 135°
2026-04-30 06:52 50.21130 9.08306 3291 ft 130 kts 135°
2026-04-30 06:53 50.20430 9.09224 3278 ft 131 kts 135°
2026-04-30 06:53 50.19743 9.10124 3284 ft 129 kts 135°
2026-04-30 06:53 50.19049 9.11038 3279 ft 130 kts 135°
2026-04-30 06:53 50.18367 9.11927 3278 ft 129 kts 136°
2026-04-30 06:54 50.17674 9.12836 3282 ft 131 kts 135°
2026-04-30 06:54 50.16979 9.13746 3284 ft 131 kts 135°
2026-04-30 06:54 50.16285 9.14656 3280 ft 130 kts 135°
2026-04-30 06:54 50.15595 9.15562 3279 ft 130 kts 135°
2026-04-30 06:55 50.14900 9.16460 3273 ft 128 kts 135°
2026-04-30 06:55 50.14211 9.17360 3278 ft 131 kts 135°
2026-04-30 06:55 50.13519 9.18264 3276 ft 130 kts 135°
2026-04-30 06:55 50.12837 9.19158 3272 ft 127 kts 135°
2026-04-30 06:56 50.12166 9.20032 3274 ft 129 kts 135°
2026-04-30 06:56 50.11469 9.20928 3278 ft 128 kts 135°
2026-04-30 06:56 50.10781 9.21837 3274 ft 130 kts 135°
2026-04-30 06:56 50.10091 9.22742 3276 ft 129 kts 135°
2026-04-30 06:57 50.09405 9.23635 3272 ft 128 kts 135°
2026-04-30 06:57 50.08729 9.24515 3273 ft 129 kts 135°
2026-04-30 06:57 50.08042 9.25407 3272 ft 128 kts 135°
2026-04-30 06:57 50.07357 9.26295 3271 ft 128 kts 135°
2026-04-30 06:58 50.06674 9.27188 3281 ft 130 kts 135°
2026-04-30 06:58 50.05980 9.28085 3273 ft 129 kts 136°
2026-04-30 06:58 50.05294 9.28981 3265 ft 126 kts 135°
2026-04-30 06:58 50.04632 9.29838 3266 ft 124 kts 135°
2026-04-30 06:59 50.03975 9.30685 3273 ft 123 kts 135°
2026-04-30 06:59 50.03309 9.31555 3260 ft 125 kts 135°
2026-04-30 06:59 50.02647 9.32414 3282 ft 126 kts 135°
2026-04-30 06:59 50.01961 9.33310 3268 ft 128 kts 134°
2026-04-30 07:00 50.01269 9.34223 3267 ft 133 kts 136°
2026-04-30 07:00 50.00570 9.35106 3269 ft 128 kts 136°
2026-04-30 07:00 49.99898 9.35971 3274 ft 127 kts 135°
2026-04-30 07:00 49.99219 9.36854 3266 ft 127 kts 135°
2026-04-30 07:01 49.98545 9.37730 3266 ft 126 kts 135°
2026-04-30 07:01 49.97866 9.38609 3267 ft 128 kts 135°
2026-04-30 07:01 49.97166 9.39515 3276 ft 134 kts 136°
2026-04-30 07:01 49.96441 9.40457 3264 ft 135 kts 135°
2026-04-30 07:02 49.95720 9.41386 3275 ft 134 kts 136°
2026-04-30 07:02 49.95012 9.42299 3273 ft 131 kts 136°
2026-04-30 07:02 49.94312 9.43203 3271 ft 131 kts 135°
2026-04-30 07:02 49.93617 9.44097 3265 ft 128 kts 136°
2026-04-30 07:03 49.92932 9.44985 3260 ft 127 kts 135°
2026-04-30 07:03 49.92263 9.45850 3260 ft 125 kts 135°
2026-04-30 07:03 49.91589 9.46713 3266 ft 127 kts 136°
2026-04-30 07:03 49.90913 9.47586 3259 ft 126 kts 135°
2026-04-30 07:04 49.90243 9.48455 3255 ft 127 kts 135°
2026-04-30 07:04 49.89569 9.49323 3260 ft 126 kts 135°
2026-04-30 07:04 49.88891 9.50198 3310 ft 124 kts 136°
2026-04-30 07:04 49.88226 9.51051 3678 ft 127 kts 136°
2026-04-30 07:05 49.86827 9.52852 4456 ft 136 kts 135°
2026-04-30 07:05 49.86094 9.53796 4854 ft 138 kts 134°
2026-04-30 07:05 49.85347 9.54753 5240 ft 139 kts 134°
2026-04-30 07:06 49.84606 9.55705 5615 ft 137 kts 134°
2026-04-30 07:06 49.83870 9.56647 5999 ft 138 kts 134°
2026-04-30 07:06 49.83132 9.57597 6385 ft 138 kts 134°
2026-04-30 07:06 49.82395 9.58543 6767 ft 137 kts 134°
2026-04-30 07:07 49.81664 9.59478 7136 ft 136 kts 134°
2026-04-30 07:07 49.80935 9.60415 7487 ft 137 kts 134°
2026-04-30 07:07 49.80201 9.61356 7852 ft 137 kts 133°
2026-04-30 07:07 49.79463 9.62299 8216 ft 138 kts 133°
2026-04-30 07:08 49.78723 9.63248 8592 ft 138 kts 133°
2026-04-30 07:08 49.77980 9.64201 8974 ft 140 kts 133°
2026-04-30 07:08 49.77227 9.65164 9356 ft 141 kts 132°
2026-04-30 07:08 49.76465 9.66140 9665 ft 146 kts 132°
2026-04-30 07:09 49.75660 9.67170 9890 ft 154 kts 132°
2026-04-30 07:09 49.74840 9.68218 9891 ft 153 kts 133°
2026-04-30 07:09 49.74022 9.69258 9899 ft 151 kts 133°
2026-04-30 07:09 49.73211 9.70296 9896 ft 152 kts 133°
2026-04-30 07:10 49.72391 9.71343 9892 ft 152 kts 133°
2026-04-30 07:10 49.71576 9.72381 9892 ft 151 kts 133°
2026-04-30 07:10 49.70767 9.73414 9892 ft 150 kts 132°
2026-04-30 07:10 49.69960 9.74443 9889 ft 150 kts 133°
2026-04-30 07:11 49.69152 9.75472 9885 ft 151 kts 133°
2026-04-30 07:11 49.68344 9.76499 9886 ft 150 kts 133°
2026-04-30 07:11 49.67538 9.77526 9886 ft 150 kts 132°
2026-04-30 07:11 49.66732 9.78554 9885 ft 150 kts 133°
2026-04-30 07:12 49.65922 9.79580 9888 ft 151 kts 133°
2026-04-30 07:12 49.65137 9.80574 9877 ft 142 kts 132°
2026-04-30 07:12 49.64349 9.81584 9878 ft 151 kts 133°
2026-04-30 07:12 49.63534 9.82618 9884 ft 155 kts 133°
2026-04-30 07:13 49.62700 9.83677 9892 ft 156 kts 133°
2026-04-30 07:13 49.61859 9.84743 9890 ft 156 kts 133°
2026-04-30 07:13 49.61018 9.85805 9886 ft 156 kts 133°
2026-04-30 07:13 49.60180 9.86869 9884 ft 156 kts 133°
2026-04-30 07:14 49.59342 9.87932 9888 ft 156 kts 133°
2026-04-30 07:14 49.58536 9.88949 9879 ft 150 kts 133°
2026-04-30 07:14 49.57720 9.89987 9881 ft 153 kts 133°
2026-04-30 07:14 49.56893 9.91033 9879 ft 154 kts 133°
2026-04-30 07:15 49.56064 9.92080 9882 ft 154 kts 133°
2026-04-30 07:15 49.55237 9.93126 9884 ft 154 kts 133°
2026-04-30 07:15 49.54408 9.94173 9886 ft 154 kts 133°
2026-04-30 07:15 49.53587 9.95210 9882 ft 154 kts 133°
2026-04-30 07:16 49.52756 9.96259 9885 ft 154 kts 133°
2026-04-30 07:16 49.51923 9.97313 9881 ft 155 kts 133°
2026-04-30 07:16 49.51120 9.98317 9874 ft 148 kts 133°
2026-04-30 07:16 49.50573 9.99015 9879 ft 153 kts 133°
2026-04-30 07:17 49.49732 10.00079 9873 ft 158 kts 133°
2026-04-30 07:17 49.48596 10.01505 9884 ft 150 kts 134°
2026-04-30 07:17 49.47272 10.03169 9862 ft 150 kts 133°
2026-04-30 07:18 49.46465 10.04191 9871 ft 151 kts 133°
2026-04-30 07:18 49.45646 10.05219 9870 ft 152 kts 134°
2026-04-30 07:18 49.44821 10.06253 9874 ft 154 kts 134°
2026-04-30 07:18 49.43990 10.07298 9870 ft 155 kts 134°
2026-04-30 07:19 49.43159 10.08339 9876 ft 153 kts 134°
2026-04-30 07:19 49.42331 10.09380 9872 ft 153 kts 134°
2026-04-30 07:19 49.41507 10.10413 9875 ft 153 kts 134°
2026-04-30 07:19 49.40682 10.11450 9880 ft 154 kts 134°
2026-04-30 07:20 49.39851 10.12489 9878 ft 154 kts 134°
2026-04-30 07:20 49.39024 10.13527 9877 ft 153 kts 134°
2026-04-30 07:20 49.38199 10.14562 9879 ft 153 kts 133°
2026-04-30 07:20 49.37384 10.15587 9872 ft 154 kts 134°
2026-04-30 07:21 49.36551 10.16623 9880 ft 153 kts 134°
2026-04-30 07:21 49.35723 10.17654 9871 ft 153 kts 134°
2026-04-30 07:21 49.34897 10.18691 9880 ft 154 kts 134°
2026-04-30 07:21 49.34066 10.19729 9871 ft 154 kts 134°
2026-04-30 07:22 49.32413 10.21794 9880 ft 153 kts 134°
2026-04-30 07:22 49.31592 10.22818 9911 ft 152 kts 134°
2026-04-30 07:22 49.30770 10.23845 9918 ft 153 kts 134°
2026-04-30 07:23 49.29945 10.24874 9911 ft 153 kts 134°
2026-04-30 07:23 49.29129 10.25893 9922 ft 154 kts 134°
2026-04-30 07:23 49.28295 10.26929 9920 ft 154 kts 134°
2026-04-30 07:23 49.27465 10.27961 9920 ft 153 kts 134°
2026-04-30 07:24 49.26641 10.28988 9918 ft 153 kts 134°
2026-04-30 07:24 49.25815 10.30016 9921 ft 153 kts 134°
2026-04-30 07:24 49.24988 10.31045 9917 ft 154 kts 134°
2026-04-30 07:24 49.24153 10.32082 9917 ft 154 kts 134°
2026-04-30 07:25 49.23318 10.33121 9913 ft 155 kts 134°
2026-04-30 07:25 49.22482 10.34158 9921 ft 155 kts 134°
2026-04-30 07:25 49.21646 10.35196 9921 ft 154 kts 134°
2026-04-30 07:25 49.20814 10.36229 9926 ft 155 kts 134°
2026-04-30 07:26 49.19975 10.37270 9923 ft 155 kts 135°
2026-04-30 07:26 49.19148 10.38293 9930 ft 155 kts 135°
2026-04-30 07:26 49.18305 10.39336 9932 ft 156 kts 134°
2026-04-30 07:26 49.17461 10.40386 9930 ft 156 kts 135°
2026-04-30 07:27 49.16615 10.41430 9918 ft 155 kts 135°
2026-04-30 07:27 49.15779 10.42465 9921 ft 154 kts 135°
2026-04-30 07:27 49.14944 10.43499 9930 ft 154 kts 135°
2026-04-30 07:27 49.14111 10.44529 9925 ft 155 kts 135°
2026-04-30 07:28 49.13271 10.45568 9927 ft 155 kts 135°
2026-04-30 07:28 49.12434 10.46598 9932 ft 154 kts 135°
2026-04-30 07:28 49.11597 10.47635 9926 ft 155 kts 135°
2026-04-30 07:28 49.10761 10.48665 9927 ft 154 kts 135°
2026-04-30 07:29 49.09928 10.49691 9927 ft 153 kts 135°
2026-04-30 07:29 49.09095 10.50720 9924 ft 155 kts 135°
2026-04-30 07:29 49.08253 10.51758 9933 ft 156 kts 135°
2026-04-30 07:29 49.07407 10.52800 9933 ft 156 kts 135°
2026-04-30 07:30 49.05736 10.54858 9924 ft 156 kts 135°
2026-04-30 07:30 49.04892 10.55892 9932 ft 156 kts 135°
2026-04-30 07:30 49.04047 10.56935 9927 ft 156 kts 135°
2026-04-30 07:31 49.03209 10.57965 9930 ft 154 kts 135°
2026-04-30 07:31 49.02375 10.58992 9931 ft 154 kts 135°
2026-04-30 07:31 49.01539 10.60015 9930 ft 154 kts 135°
2026-04-30 07:31 49.00703 10.61043 9927 ft 154 kts 135°
2026-04-30 07:32 48.99868 10.62067 9920 ft 154 kts 135°
2026-04-30 07:32 48.99027 10.63098 9932 ft 156 kts 135°
2026-04-30 07:32 48.98180 10.64135 9932 ft 156 kts 135°
2026-04-30 07:32 48.97344 10.65159 9933 ft 156 kts 135°
2026-04-30 07:33 48.96504 10.66192 9921 ft 155 kts 135°
2026-04-30 07:33 48.95660 10.67223 9928 ft 156 kts 135°
2026-04-30 07:33 48.94815 10.68259 9918 ft 156 kts 135°
2026-04-30 07:33 48.93976 10.69282 9915 ft 154 kts 135°
2026-04-30 07:34 48.93138 10.70307 9917 ft 155 kts 135°
2026-04-30 07:34 48.92293 10.71337 9924 ft 156 kts 135°
2026-04-30 07:34 48.91452 10.72368 9920 ft 154 kts 135°
2026-04-30 07:34 48.90617 10.73389 9919 ft 153 kts 135°
2026-04-30 07:35 48.89785 10.74404 9916 ft 153 kts 135°
2026-04-30 07:35 48.88947 10.75425 9918 ft 154 kts 135°
2026-04-30 07:35 48.88121 10.76432 9920 ft 155 kts 135°
2026-04-30 07:35 48.87276 10.77460 9917 ft 156 kts 135°
2026-04-30 07:36 48.86436 10.78485 9907 ft 155 kts 135°
2026-04-30 07:36 48.85595 10.79510 9916 ft 156 kts 135°
2026-04-30 07:36 48.84749 10.80541 9914 ft 155 kts 135°
2026-04-30 07:36 48.83908 10.81565 9912 ft 155 kts 135°
2026-04-30 07:37 48.83064 10.82589 9918 ft 156 kts 135°
2026-04-30 07:37 48.82222 10.83614 9913 ft 155 kts 135°
2026-04-30 07:37 48.81381 10.84633 9909 ft 154 kts 135°
2026-04-30 07:37 48.80543 10.85650 9910 ft 154 kts 135°
2026-04-30 07:38 48.79704 10.86671 9911 ft 155 kts 135°
2026-04-30 07:38 48.78858 10.87696 9908 ft 157 kts 135°
2026-04-30 07:38 48.78010 10.88726 9907 ft 156 kts 135°
2026-04-30 07:38 48.77165 10.89750 9898 ft 155 kts 135°
2026-04-30 07:39 48.76327 10.90765 9905 ft 154 kts 136°
2026-04-30 07:39 48.75492 10.91780 9909 ft 155 kts 135°
2026-04-30 07:39 48.74655 10.92793 9908 ft 156 kts 136°
2026-04-30 07:39 48.73796 10.93831 9910 ft 156 kts 136°
2026-04-30 07:40 48.72952 10.94851 9904 ft 154 kts 136°
2026-04-30 07:40 48.72116 10.95862 9907 ft 154 kts 136°
2026-04-30 07:40 48.71274 10.96877 9905 ft 155 kts 136°
2026-04-30 07:40 48.70446 10.97880 9898 ft 155 kts 136°
2026-04-30 07:41 48.69608 10.98892 9899 ft 154 kts 136°
2026-04-30 07:41 48.68770 10.99904 9909 ft 154 kts 136°
2026-04-30 07:41 48.67927 11.00920 9907 ft 155 kts 136°
2026-04-30 07:41 48.67080 11.01941 9868 ft 157 kts 136°
2026-04-30 07:42 48.66210 11.02992 9734 ft 159 kts 136°
2026-04-30 07:42 48.65341 11.04039 9607 ft 160 kts 136°
2026-04-30 07:42 48.64460 11.05098 9343 ft 164 kts 136°
2026-04-30 07:42 48.63563 11.06176 9062 ft 165 kts 137°
2026-04-30 07:43 48.62668 11.07251 8786 ft 164 kts 137°
2026-04-30 07:43 48.61779 11.08321 8512 ft 163 kts 137°
2026-04-30 07:43 48.60893 11.09386 8248 ft 163 kts 136°
2026-04-30 07:43 48.60006 11.10454 7978 ft 163 kts 137°
2026-04-30 07:44 48.59128 11.11506 7695 ft 160 kts 137°
2026-04-30 07:44 48.58263 11.12547 7385 ft 159 kts 137°
2026-04-30 07:44 48.57415 11.13608 7033 ft 158 kts 135°
2026-04-30 07:44 48.56581 11.14670 6669 ft 157 kts 136°
2026-04-30 07:45 48.55760 11.15712 6281 ft 156 kts 135°
2026-04-30 07:45 48.54932 11.16759 5888 ft 155 kts 135°
2026-04-30 07:45 48.54091 11.17830 5391 ft 160 kts 135°
2026-04-30 07:45 48.53251 11.18895 5056 ft 153 kts 134°
2026-04-30 07:46 48.52454 11.19909 4795 ft 148 kts 134°
2026-04-30 07:46 48.51673 11.20902 4535 ft 147 kts 134°
2026-04-30 07:46 48.50899 11.21886 4298 ft 142 kts 134°
2026-04-30 07:46 48.50178 11.22795 4300 ft 131 kts 134°
2026-04-30 07:47 48.49482 11.23678 4263 ft 131 kts 134°
2026-04-30 07:47 48.48789 11.24563 4263 ft 130 kts 134°
2026-04-30 07:47 48.48102 11.25437 4261 ft 130 kts 134°
2026-04-30 07:47 48.47393 11.26337 4128 ft 133 kts 134°
2026-04-30 07:48 48.46686 11.27235 4011 ft 134 kts 134°
2026-04-30 07:48 48.45972 11.28136 3858 ft 134 kts 133°
2026-04-30 07:48 48.45252 11.29047 3674 ft 135 kts 133°
2026-04-30 07:48 48.44524 11.29964 3463 ft 137 kts 133°
2026-04-30 07:49 48.43802 11.30871 3308 ft 133 kts 133°
2026-04-30 07:49 48.43108 11.31744 3299 ft 127 kts 134°
2026-04-30 07:49 48.42437 11.32599 3292 ft 126 kts 133°
2026-04-30 07:49 48.41917 11.33258 3293 ft 125 kts 133°
2026-04-30 07:50 48.41248 11.34106 3287 ft 126 kts 133°
2026-04-30 07:50 48.40581 11.34945 3290 ft 124 kts 133°
2026-04-30 07:50 48.39921 11.35779 3302 ft 126 kts 133°
2026-04-30 07:50 48.39253 11.36626 3303 ft 124 kts 133°
2026-04-30 07:51 48.38587 11.37461 3302 ft 125 kts 133°
2026-04-30 07:51 48.37915 11.38310 3299 ft 127 kts 133°
2026-04-30 07:51 48.37249 11.39156 3309 ft 125 kts 134°
2026-04-30 07:51 48.36575 11.40000 3300 ft 125 kts 133°
2026-04-30 07:52 48.35913 11.40828 3299 ft 123 kts 133°
2026-04-30 07:52 48.35255 11.41662 3304 ft 123 kts 133°
2026-04-30 07:52 48.34602 11.42485 3307 ft 122 kts 133°
2026-04-30 07:52 48.33959 11.43286 3312 ft 121 kts 133°
2026-04-30 07:53 48.33322 11.44095 3309 ft 120 kts 133°
2026-04-30 07:53 48.32681 11.44899 3309 ft 120 kts 133°
2026-04-30 07:53 48.32049 11.45692 3306 ft 116 kts 133°
2026-04-30 07:53 48.31440 11.46456 3309 ft 114 kts 131°
2026-04-30 07:54 48.30831 11.47233 3166 ft 119 kts 133°
2026-04-30 07:54 48.30181 11.48049 2958 ft 125 kts 134°
2026-04-30 07:54 48.29509 11.48873 2799 ft 120 kts 134°
2026-04-30 07:54 48.28915 11.49614 2785 ft 106 kts 133°
2026-04-30 07:55 48.28339 11.50315 2790 ft 107 kts 134°
2026-04-30 07:55 48.27656 11.50780 2793 ft 120 kts 173°
2026-04-30 07:55 48.26807 11.50515 2797 ft 128 kts 184°
2026-04-30 07:55 48.25951 11.50232 2789 ft 116 kts 183°
2026-04-30 07:56 48.25241 11.49976 2861 ft 94 kts 181°
2026-04-30 07:56 48.24660 11.49723 2802 ft 89 kts 185°
2026-04-30 07:56 48.24066 11.49499 2619 ft 85 kts 171°
2026-04-30 07:56 48.23547 11.49698 2422 ft 68 kts 129°
2026-04-30 07:57 48.23283 11.50235 2304 ft 62 kts 110°
2026-04-30 07:57 48.23153 11.50819 2191 ft 57 kts 96°
2026-04-30 07:57 48.23134 11.51420 2159 ft 59 kts 83°
2026-04-30 07:57 48.23245 11.52007 2140 ft 60 kts 76°
2026-04-30 07:58 48.23357 11.52614 2052 ft 62 kts 79°
2026-04-30 07:58 48.23464 11.53239 1935 ft 61 kts 79°
2026-04-30 07:58 48.23558 11.53851 1842 ft 60 kts 80°
2026-04-30 07:58 48.23656 11.54414 1751 ft 50 kts 78°
2026-04-30 07:59 48.23739 11.54891 1673 ft 46 kts 79°
2026-04-30 07:59 48.23822 11.55370 1612 ft 47 kts 79°
2026-04-30 07:59 48.23878 11.55694 1602 ft 10 kts 77°
2026-04-30 08:00 48.23888 11.55685 1602 ft 6 kts 246°
2026-04-30 08:00 48.23868 11.55620 1602 ft 10 kts 241°
2026-04-30 08:00 48.23841 11.55501 1603 ft 16 kts 258°
2026-04-30 08:00 48.23810 11.55307 1602 ft 23 kts 252°
2026-04-30 08:01 48.23742 11.55163 1602 ft 16 kts 158°
2026-04-30 08:01 48.23638 11.55200 1602 ft 18 kts 149°
2026-04-30 08:01 48.23565 11.55304 1602 ft 5 kts 96°
2026-04-30 08:01 48.23567 11.55309 1602 ft 0 kts 34°